Vertical_Velocity
-1 -0 -1 -1 -0 -1 -1 -1 1 -1 -0 -4 -2 -2 -2 0 -0 -5 -3 2 1 3 -0 2 1 1 1 -2 -0 -1 -1 2 -2 2 4 3 3 2 3 1 1 2 1 -2 1 -3 -1
-1 -0 -0 -1 -2 -2 -1 -1 0 0 -1 -2 -0 2 3 -0 -0 -2 -4 -1 5 2 0 -0 1 1 0 -2 -3 0 0 -1 7 4 3 4 5 4 7 2 6 2 3 0 1 0 1
-1 1 -1 -1 -1 -1 -2 -1 0 -2 1 -2 1 -4 -1 -2 -3 -4 -2 1 -2 2 1 2 1 -2 -1 -2 2 -0 -1 0 5 4 4 6 5 5 -1 5 5 1 3 1 -1 1 -2
-1 -1 -1 -0 -1 -0 -1 -1 1 -1 -0 -1 -2 -3 -2 -1 -5 -3 -2 -3 -1 -3 8 -1 1 2 0 -2 3 -0 0 -1 3 -1 2 3 6 7 2 0 3 2 3 3 -0 -0 -1
-1 -2 -1 -0 -3 -2 -1 -1 0 -2 -1 1 -2 -2 -5 -3 -4 -5 -4 -2 -5 -0 -2 7 -1 1 2 2 1 1 1 -3 1 0 2 2 6 4 2 2 3 2 -2 -1 0 -2 -1
-1 -2 -0 1 -1 -4 -1 -0 -1 0 -0 1 -1 2 -3 -4 -3 -4 -1 -3 -3 1 -1 2 -3 -1 3 4 5 -10 5 0 5 1 4 1 8 4 0 -2 -12 -4 -2 -0 -0 -2 -2
-1 -2 -1 1 1 -0 -2 -1 -2 -0 1 1 4 -1 1 -0 -1 -1 -0 -2 -11 -7 -4 -4 1 5 3 2 3 -2 2 2 3 1 1 2 1 -1 2 1 3 -0 -2 0 3 1 -0
-1 -2 0 -1 -0 2 -1 -1 -1 -2 0 1 2 1 1 1 3 1 -2 -1 -2 -1 -3 2 1 -3 4 2 1 -1 2 4 3 -2 6 1 -1 1 0 2 1 -0 -0 -1 -0 -1 0
-1 -2 0 -0 -1 -1 -1 1 -1 -2 -0 -0 -0 3 1 4 -1 2 2 1 -2 2 -5 -1 1 -6 -13 -3 -4 3 -3 3 1 7 2 2 -3 2 1 0 1 1 0 -1 -0 1 0
-1 0 -1 -1 0 0 -1 -3 1 -0 -4 -2 1 1 1 2 2 -2 5 3 -1 -1 -4 -3 5 -0 1 0 2 3 -1 2 -1 3 3 6 2 2 1 1 1 0 -1 -0 -1 -1 -1
2 -1 -1 -2 -0 -1 1 0 -1 1 -0 -5 0 0 2 4 3 -1 1 3 3 -1 -7 -2 0 2 4 4 2 4 3 3 -4 0 2 -1 2 2 2 2 1 -2 -0 -0 0 -0 0
1 1 -1 -1 -1 1 -2 0 2 -0 1 -0 -1 -2 1 3 4 1 2 -1 2 -3 -6 0 0 -0 1 3 2 5 3 5 -1 4 2 0 -2 -2 -1 -0 -0 1 -0 1 1 1 -1
2 1 2 -1 -0 -2 -0 -1 1 -1 -2 1 -0 -0 -1 2 5 1 -1 2 1 -7 -1 3 2 1 3 -2 1 1 1 -2 -2 0 1 3 2 2 1 1 0 1 1 -1 -4 -3 -7
-2 -3 3 3 1 0 -1 -0 -1 3 -1 -2 2 0 -1 -1 -0 4 2 -3 -3 0 -5 -5 -1 4 -1 -2 1 1 -1 1 4 3 -1 -2 1 1 0 -1 -2 1 -0 -1 -5 -3 -4
-0 -1 -2 1 2 0 0 1 1 -1 3 -2 -2 2 -1 -1 2 -1 1 3 -1 0 3 -0 -2 -0 2 0 -0 -3 -0 0 2 1 2 -0 -0 1 0 0 1 -3 -1 -0 -2 -0 -1
-5 -0 1 1 1 -0 -1 0 -2 1 1 0 1 -2 2 3 -2 1 3 -5 -0 3 1 3 1 -2 -6 -1 1 1 -0 -3 -1 -0 1 0 -0 -0 0 1 1 1 1 -1 -1 -3 -1
1 -0 -2 -2 0 2 -1 -3 -2 -1 -0 2 -0 -2 1 2 3 -2 -2 -2 -5 -4 1 1 2 2 -2 -2 -2 -4 -0 1 1 1 1 1 2 0 1 -2 1 -1 -3 -2 -0 -1 -5
1 -1 -1 1 1 2 4 1 -1 -4 1 -1 -1 2 0 -1 1 3 1 -2 2 3 -4 -4 1 3 4 1 0 0 -0 -1 -1 -0 -1 1 1 0 -2 1 0 0 -1 2 1 -2 0
-1 -1 1 -0 -0 -3 1 1 1 2 -2 0 0 -2 2 1 -4 -1 1 0 0 -0 1 3 -3 -2 2 3 4 2 0 1 1 -0 -0 0 -1 -0 1 0 -0 -2 -2 -0 1 2 -3
2 -0 -0 -3 2 0 -1 0 1 0 -2 -0 -4 -3 -1 -2 4 2 -2 -0 -1 -0 0 -2 1 0 -3 -3 -1 1 3 4 2 1 2 2 -0 -2 -5 -1 -1 -3 -3 1 3 -1 -5
0 -0 -1 -2 -2 1 0 1 -2 -1 2 -6 4 -4 -1 -2 -4 -1 4 2 -1 -1 -0 -1 1 0 1 -2 -2 -2 -1 -1 -0 1 2 2 2 1 2 2 0 0 -0 0 -7 4 -3
1 4 -1 -2 -3 1 -2 -2 -1 -0 -1 -2 -2 -1 1 -6 2 -7 -2 -0 6 4 -1 4 1 1 -2 -0 2 1 -3 -3 -2 -2 1 1 -1 -1 -2 -1 -1 -4 2 -0 2 1 -5
-2 -1 6 -2 -1 -4 -1 -2 0 -0 -2 -4 -4 -2 -0 4 -4 -0 -3 -5 -5 -3 5 3 1 1 3 2 -1 -2 -0 -1 -3 -3 -3 -4 -2 -1 -1 -2 -0 -6 -5 2 3 -0 7
4 -1 -1 1 -3 0 -3 -4 1 -1 3 -1 0 -4 -3 -5 1 -0 -2 -1 -4 -2 -2 -1 2 1 1 0 1 2 1 -0 1 2 3 -1 0 1 -2 -1 -3 -1 1 1 0 2 2
-2 2 -0 1 -1 -3 -0 -1 -3 1 -2 2 2 1 -3 -4 -1 -1 0 -1 -0 1 -7 -2 -0 3 -0 -1 1 -1 -2 1 -1 -0 2 3 5 0 0 -1 -5 -1 -0 1 3 1 5
-0 -3 -2 -0 1 -1 -1 1 0 0 0 -1 0 2 -0 -0 -3 -1 -2 -1 1 -3 -1 -1 -1 -2 -2 1 0 1 -3 1 1 -1 0 1 3 1 0 -0 -2 -3 -1 0 -1 -2 2
0 1 2 1 1 4 -3 3 1 1 -0 1 2 3 1 -4 -1 1 -1 -1 -2 4 2 -3 -1 -1 3 -1 1 -1 -4 -2 -2 2 -0 1 1 -2 5 0 -5 -2 2 1 1 2 -2
-0 3 -2 3 1 4 -1 -3 3 -1 2 -1 0 2 3 -4 2 1 -1 -2 -1 2 4 4 4 -7 -1 0 -0 -3 -0 -1 -1 -1 -0 3 1 -3 4 -2 -10 -4 2 2 0 -1 -1
-1 1 0 2 -2 -1 3 -3 -5 0 1 -0 0 -1 1 0 -8 1 -5 -1 -0 -1 5 0 3 8 4 -4 -4 1 -1 0 0 -4 -4 -6 -3 -1 -2 1 2 0 -3 -5 -4 -0 -1
Height
3131 3129 3126 3122 3119 3115 3111 3108 3105 3101 3096 3091 3086 3082 3078 3073 3068 3063 3057 3054 3056 3057 3058 3058 3060 3062 3064 3069 3072 3074 3076 3079 3083 3087 3091 3096 3102 3108 3113 3118 3125 3130 3135 3140 3144 3148 3150
3132 3129 3126 3123 3119 3115 3111 3108 3104 3101 3096 3092 3088 3084 3079 3075 3070 3065 3058 3055 3055 3055 3056 3058 3059 3061 3065 3069 3071 3073 3075 3078 3082 3086 3090 3094 3101 3107 3113 3117 3124 3128 3132 3137 3141 3145 3148
3133 3130 3127 3123 3120 3116 3111 3107 3104 3100 3097 3093 3089 3085 3081 3077 3072 3067 3062 3059 3057 3056 3056 3057 3059 3061 3064 3068 3070 3073 3074 3078 3081 3085 3089 3094 3100 3106 3108 3115 3121 3125 3130 3134 3139 3142 3145
3134 3131 3128 3124 3120 3116 3111 3107 3103 3100 3097 3094 3091 3087 3082 3079 3076 3070 3066 3061 3057 3056 3054 3055 3058 3061 3064 3067 3070 3073 3075 3078 3081 3085 3089 3093 3099 3105 3108 3112 3119 3124 3128 3132 3135 3139 3142
3135 3132 3128 3125 3121 3116 3111 3106 3102 3099 3097 3094 3092 3088 3084 3081 3078 3074 3069 3064 3058 3056 3056 3054 3059 3062 3065 3067 3071 3073 3075 3078 3082 3086 3089 3093 3099 3103 3107 3111 3117 3121 3123 3128 3134 3136 3139
3136 3133 3129 3125 3122 3116 3111 3106 3102 3098 3096 3094 3092 3089 3086 3082 3079 3077 3072 3069 3064 3061 3059 3059 3060 3066 3067 3068 3070 3072 3075 3079 3082 3086 3090 3095 3099 3102 3106 3109 3111 3116 3122 3127 3131 3134 3136
3137 3134 3130 3126 3122 3118 3113 3108 3103 3099 3097 3094 3092 3090 3088 3085 3081 3079 3076 3073 3072 3067 3064 3065 3066 3066 3068 3070 3072 3075 3076 3079 3082 3087 3090 3094 3099 3102 3106 3111 3115 3119 3124 3127 3130 3132 3134
3138 3136 3132 3127 3123 3119 3114 3109 3105 3101 3097 3094 3092 3089 3088 3086 3084 3082 3080 3077 3075 3073 3069 3068 3068 3069 3071 3072 3074 3076 3079 3082 3084 3088 3093 3097 3100 3104 3107 3111 3115 3119 3122 3125 3128 3130 3132
3139 3136 3132 3129 3124 3120 3115 3110 3106 3102 3098 3095 3091 3089 3087 3086 3084 3084 3082 3080 3078 3076 3075 3074 3073 3073 3074 3077 3077 3079 3083 3084 3087 3091 3094 3098 3102 3105 3108 3112 3115 3118 3121 3124 3127 3128 3129
3139 3136 3133 3130 3126 3121 3117 3112 3107 3103 3099 3097 3092 3088 3086 3085 3085 3083 3082 3080 3080 3079 3080 3082 3080 3080 3080 3080 3082 3083 3085 3088 3090 3094 3097 3100 3103 3105 3109 3112 3115 3118 3121 3123 3125 3128 3128
3139 3137 3134 3130 3127 3123 3119 3114 3109 3105 3100 3097 3093 3089 3086 3084 3084 3083 3083 3081 3081 3081 3084 3086 3084 3083 3083 3084 3086 3085 3088 3090 3093 3095 3099 3101 3102 3106 3109 3112 3115 3118 3120 3121 3124 3126 3127
3138 3136 3134 3132 3129 3124 3120 3116 3111 3106 3102 3098 3095 3091 3088 3086 3083 3082 3081 3081 3082 3084 3084 3086 3086 3086 3086 3086 3087 3087 3089 3092 3094 3098 3099 3100 3103 3106 3109 3111 3114 3117 3119 3121 3123 3125 3126
3138 3136 3134 3132 3130 3126 3122 3118 3113 3109 3104 3100 3096 3093 3090 3088 3086 3083 3082 3082 3084 3083 3089 3088 3086 3086 3088 3089 3090 3091 3091 3093 3095 3098 3099 3101 3103 3105 3108 3111 3114 3116 3118 3121 3127 3128 3125
3139 3137 3134 3132 3129 3127 3124 3119 3115 3111 3107 3102 3098 3095 3092 3090 3088 3085 3084 3085 3083 3086 3087 3089 3088 3089 3090 3090 3092 3093 3094 3095 3097 3098 3099 3101 3104 3105 3107 3110 3112 3115 3117 3117 3126 3127 3121
3140 3137 3135 3133 3130 3127 3125 3122 3117 3113 3109 3106 3102 3097 3094 3091 3090 3088 3087 3086 3087 3088 3089 3089 3091 3091 3091 3092 3094 3094 3095 3097 3097 3098 3100 3100 3101 3103 3105 3108 3112 3113 3115 3118 3118 3121 3121
3140 3138 3136 3134 3131 3129 3125 3123 3120 3116 3111 3108 3105 3101 3097 3094 3092 3091 3090 3088 3088 3089 3090 3091 3090 3092 3093 3093 3094 3095 3095 3096 3097 3098 3099 3100 3101 3102 3104 3107 3110 3111 3113 3116 3117 3120 3119
3139 3137 3136 3133 3131 3130 3127 3123 3121 3119 3115 3110 3107 3104 3101 3097 3094 3093 3093 3092 3092 3091 3090 3091 3090 3091 3091 3092 3093 3094 3095 3096 3096 3097 3098 3099 3100 3103 3104 3105 3107 3109 3109 3112 3113 3114 3113
3138 3137 3135 3134 3131 3129 3127 3125 3121 3119 3117 3113 3109 3107 3104 3101 3100 3095 3095 3096 3095 3094 3094 3092 3091 3090 3091 3092 3092 3093 3094 3095 3095 3097 3098 3099 3099 3099 3101 3101 3103 3104 3105 3107 3108 3109 3108
3135 3135 3135 3133 3132 3129 3127 3125 3123 3119 3116 3116 3111 3109 3107 3104 3101 3100 3098 3096 3095 3095 3094 3093 3093 3092 3091 3091 3093 3092 3093 3093 3094 3095 3097 3097 3098 3098 3100 3102 3100 3100 3101 3103 3104 3104 3103
3132 3132 3132 3132 3130 3129 3127 3125 3122 3120 3118 3115 3113 3110 3108 3106 3103 3101 3099 3098 3096 3095 3094 3094 3093 3092 3093 3093 3093 3092 3091 3092 3092 3093 3095 3096 3095 3095 3096 3096 3097 3097 3097 3098 3100 3100 3097
3127 3128 3129 3128 3127 3126 3125 3123 3122 3120 3117 3116 3113 3112 3110 3107 3105 3103 3101 3099 3096 3095 3094 3093 3093 3093 3093 3092 3091 3091 3091 3091 3092 3092 3092 3093 3092 3092 3093 3093 3093 3093 3093 3093 3091 3091 3090
3122 3123 3124 3124 3124 3123 3122 3121 3119 3118 3116 3115 3113 3111 3108 3107 3104 3102 3102 3101 3098 3095 3095 3093 3092 3091 3091 3091 3091 3090 3090 3091 3090 3091 3091 3091 3091 3090 3090 3089 3089 3086 3087 3087 3086 3084 3083
3116 3116 3117 3118 3119 3118 3117 3117 3116 3115 3113 3112 3111 3109 3107 3106 3103 3101 3099 3099 3098 3097 3094 3092 3091 3090 3090 3089 3088 3088 3087 3088 3088 3089 3089 3090 3089 3089 3087 3086 3084 3081 3079 3079 3078 3077 3078
3108 3110 3110 3111 3112 3112 3112 3112 3111 3110 3109 3107 3106 3106 3104 3103 3101 3099 3097 3096 3095 3094 3093 3092 3090 3089 3089 3087 3086 3085 3084 3083 3083 3083 3084 3084 3085 3086 3083 3083 3083 3074 3073 3073 3073 3073 3073
3101 3102 3103 3103 3104 3105 3105 3105 3104 3104 3103 3103 3100 3100 3099 3097 3097 3096 3094 3092 3090 3089 3090 3089 3088 3088 3086 3085 3084 3082 3080 3079 3077 3077 3077 3078 3079 3080 3080 3077 3072 3072 3070 3070 3068 3071 3070
3091 3092 3093 3095 3095 3097 3097 3097 3097 3096 3096 3097 3096 3093 3092 3092 3092 3090 3089 3089 3086 3085 3084 3084 3083 3083 3082 3082 3081 3079 3077 3075 3073 3071 3070 3072 3073 3077 3075 3075 3071 3067 3066 3066 3065 3068 3067
3080 3082 3083 3085 3085 3087 3090 3089 3089 3089 3089 3090 3088 3087 3086 3084 3085 3084 3083 3083 3082 3081 3078 3077 3078 3077 3076 3075 3076 3075 3073 3073 3072 3068 3067 3068 3069 3069 3070 3069 3064 3063 3063 3063 3066 3069 3064
3069 3072 3073 3075 3075 3077 3079 3080 3081 3081 3080 3081 3081 3080 3080 3077 3077 3077 3076 3077 3076 3076 3075 3073 3072 3069 3070 3069 3069 3068 3066 3065 3065 3064 3065 3065 3065 3064 3066 3067 3064 3060 3061 3063 3061 3059 3059
3056 3059 3062 3064 3065 3066 3068 3070 3071 3071 3071 3071 3071 3071 3070 3069 3070 3069 3069 3069 3069 3068 3069 3066 3066 3064 3063 3062 3062 3061 3060 3059 3058 3059 3059 3062 3061 3061 3062 3058 3056 3056 3056 3057 3057 3056 3054